Weather in Beloretsk

Russia / Kirov Oblast     58°40′12″N   52°28′41″E
temp.,
°C
wind,
m/s
gust,
m/s
humid.,
%
clouds,
%
prec.,
mm/h
press.,
hPa
HPBL,
m
9 may, sun
sun900:00+7se22935 0.0 101739
03:00+7se26960 0.0 1017123
06:00+11sse39815 0.0 1016303
09:00+17sse47554 0.0 10161145
12:00+19s474478 0.0 10151945
15:00+20sse46395 0.0 10152186
18:00+18sse38535 0.0 1015306
21:00+13se4126550 0.0 1016265
10 may, mon
mon1000:00+13sse41364100 0.0 1017371
03:00+13sse4146486 0.0 1018418
06:00+12sse2878100 0.3 1019222
09:00+12ssw2583100 0.6 1020239
12:00+14se3676100 0.3 1020258
15:00+13s2493100 2.0 1022174
18:00+10nw4896100 5.9 1024470
21:00+7nnw3795100 8.8 1027480
11 may, tue
tue1100:00+6n4891100 0.2 1028591
03:00+6n379481 0.2 1030523
06:00+6nne37835 0.0 1031491
09:00+10nne46545 0.0 1032794
12:00+14nne33385 0.0 10311169
15:00+16n23375 0.0 10311268
18:00+14n11565 0.0 103116
21:00+9ne006492 0.0 103210
12 may, wed
wed1200:00+8wnw0168100 0.0 103310
03:00+8w117055 0.0 103310
06:00+12wnw126111 0.0 1033138
09:00+17wnw12495 0.0 1033662
12:00+21w224392 0.0 10321152
15:00+22wnw234365 0.0 10311315
18:00+19w1161100 0.0 103012
21:00+14w117697 0.0 103010
13 may, thu
thu1300:00+12wnw118153 0.0 103110
03:00+11nw118471 0.0 103110
06:00+15nw1171100 0.0 1031108
09:00+21w115245 0.0 1030682
12:00+25nw004147 0.0 10291474
15:00+25sw11393 0.0 10281779
18:00+22sw11542 0.0 102714
21:00+16w11695 0.0 102711